Location: Acheville
(50.3840°N, 2.8827°E)
Time: 10:44:44
(UTC+00:00)

Meteor 1-4 Rocket - Pass Details

Date: 24 October 2021
Orbit: 446 x 496 km, 81.2° (Epoch: 30 November)

Event Time Altitude Azimuth Distance (km) Brightness Sun altitude
Rises 18:30:30 0° 194° (SSW) 2,465 6.3 -18.4°
Reaches altitude 10° 18:32:35 10° 196° (SSW) 1,590 5.3 -18.8°
Maximum altitude 18:36:02 76° 282° (WNW) 472 2.5 -19.3°
Drops below altitude 10° 18:39:30 10° 9° (N) 1,589 5.1 -19.9°
Enters shadow 18:40:44 - 11° (N) 2,109 5.7 -20.1°
